Location: Ceske Budejovice
(48.9830°N, 14.4670°E)
Time: 08:15:56
(UTC+02:00)

DX 1 - Pass Details

Date: 27 August 2019
Orbit: 620 x 630 km, 98.4° (Epoch: 21 September)

Event Time Altitude Azimuth Distance (km) Brightness Sun altitude
Rises 03:39:19 0° 140° (SE) 2,887 ? -21.7°
Reaches altitude 10° 03:41:38 10° 131° (SE) 1,986 ? -21.4°
Maximum altitude 03:45:33 35° 66° (ENE) 1,017 ? -21.0°
Drops below altitude 10° 03:49:29 10° 1° (N) 2,004 ? -20.5°
Sets 03:51:49 0° 353° (N) 2,918 ? -20.3°
